Vertical_Velocity
2 1 -1 -2 3 -0 -0 1 -1 1 -1 0 -0 -0 -0 1 0 1 1 0 -1 1
1 -1 0 1 3 -1 1 0 1 0 1 -0 1 -1 1 2 -1 -1 -1 -0 -1 -0
2 -1 2 0 0 1 0 1 2 -1 -1 0 2 -0 0 0 -1 -0 -0 1 2 1
1 0 2 0 2 0 1 1 0 -2 -0 3 -1 -1 0 -2 -0 0 2 -0 -0 2
-0 2 0 2 -0 1 1 1 -1 0 1 -1 -1 0 0 1 0 -0 -0 -0 -0 0
1 1 1 0 1 1 0 0 -1 0 0 1 1 -0 -1 -1 -1 -2 -3 -2 -1 -1
2 1 0 1 0 1 0 -1 0 2 0 0 -1 -1 -2 -2 -2 -2 -1 -0 0 0
1 1 0 -0 -0 -0 -0 1 2 0 0 -0 -1 -1 -1 -2 -2 -2 -0 2 1 1
0 0 1 -0 0 1 1 -0 -0 -0 -0 1 -1 -0 -0 -2 -5 -2 1 -3 -2 -0
0 -0 -0 1 2 -1 -1 0 0 0 -0 0 -0 -1 -1 -1 0 -0 -0 -1 -1 -4
-0 0 2 1 -1 -1 0 1 1 -1 -3 -1 0 -2 -1 -0 1 0 1 0 1 1
1 1 -0 -1 -0 1 1 -1 -1 -1 -1 -4 1 0 0 -1 -1 1 -1 -1 -1 0
1 -0 0 0 -0 -1 -2 -1 -1 -0 -1 1 -2 0 -2 -1 -2 -7 -7 0 -3 -2
-1 0 -0 -1 -1 -1 1 -2 -2 0 3 1 1 -3 -4 -2 -3 -0 -2 -1 -4 -5
Height
1514 1516 1518 1520 1521 1521 1522 1523 1523 1524 1524 1524 1523 1523 1523 1522 1521 1521 1520 1519 1518 1516
1513 1515 1517 1519 1519 1520 1521 1522 1522 1523 1523 1522 1522 1522 1522 1521 1520 1520 1519 1517 1516 1514
1511 1513 1515 1517 1518 1519 1521 1521 1521 1521 1522 1521 1521 1521 1520 1520 1519 1518 1517 1515 1513 1511
1509 1512 1513 1515 1517 1518 1519 1520 1520 1520 1521 1520 1520 1520 1519 1518 1517 1516 1514 1512 1510 1507
1508 1510 1512 1514 1516 1518 1518 1518 1519 1520 1520 1519 1519 1518 1518 1516 1515 1513 1511 1509 1506 1503
1506 1509 1511 1513 1515 1516 1517 1518 1519 1519 1519 1518 1518 1517 1515 1514 1512 1510 1507 1504 1501 1498
1505 1508 1510 1512 1514 1515 1517 1518 1519 1518 1518 1517 1516 1514 1512 1510 1508 1506 1503 1499 1496 1492
1504 1507 1509 1511 1513 1515 1516 1517 1517 1517 1516 1515 1513 1512 1509 1507 1504 1501 1498 1495 1492 1488
1503 1506 1508 1511 1513 1514 1515 1516 1516 1515 1514 1513 1511 1508 1505 1502 1499 1497 1493 1489 1486 1482
1503 1506 1508 1510 1512 1513 1515 1515 1514 1513 1512 1510 1507 1504 1501 1498 1494 1491 1487 1483 1479 1474
1503 1506 1508 1510 1511 1513 1513 1512 1511 1509 1508 1507 1503 1500 1497 1493 1489 1486 1482 1477 1473 1467
1503 1506 1508 1509 1510 1511 1510 1510 1508 1506 1504 1502 1500 1496 1492 1488 1484 1479 1475 1471 1466 1460
1503 1505 1507 1508 1509 1509 1508 1507 1505 1504 1501 1498 1495 1492 1487 1483 1478 1473 1467 1462 1457 1453
1503 1505 1506 1506 1507 1506 1505 1504 1502 1500 1497 1495 1491 1487 1483 1478 1472 1466 1460 1456 1451 1448